www.pogodaiklimat.ru
ПОГОДА на Мысе Африка

Архив погоды на Мысе Африка (Камчатский край, Россия)

Время
(UTC), дата
06 11.04
09 11.04
12 11.04
15 11.04
18 11.04
21 11.04
00 12.04
03 12.04
06 12.04
09 12.04
12 12.04
15 12.04
18 12.04
21 12.04
00 13.04
03 13.04
06 13.04
09 13.04
12 13.04
15 13.04
18 13.04
21 13.04
00 14.04
03 14.04
06 14.04
09 14.04
12 14.04
15 14.04
18 14.04
21 14.04
00 15.04
03 15.04
06 15.04
09 15.04
12 15.04
15 15.04
18 15.04
21 15.04
00 16.04
03 16.04
06 16.04
09 16.04
12 16.04
15 16.04
18 16.04
21 16.04
00 17.04
03 17.04
06 17.04
09 17.04
12 17.04
18 17.04
21 17.04
00 18.04
03 18.04
Ветер
(напр.,м/с)
Видим. Явления Облачность Т
(С)
Тd
(С)
f
(%)
Тe
(С)
Тes
(С)
Комфортность P
(гПа)
Po
(гПа)
Тmin
(С)
Tmax
(С)
R
(мм)
R24
(мм)
S
(см)
СЗ 5-11 {20} 20 км 9/4 600 м
[Sc Ac trans Ci fib]
+1.5 -7.8 50 -4 -3 995.0 993.3
СЗ 10-14 {21} 20 км 3/0
[Ci fib]
-0.7 -8.8 54 -9 -9 1000.5 998.7 +2.7 0.3
З 13-17 {21} 20 км 3/0
[Ci fib]
-1.0 -10.1 50 -10 -10 1003.9 1002.2
СЗ 12-15 {19} 20 км 3/0
[Ci fib]
-1.2 -11.9 44 -10 -10 1007.1 1005.3
З 6-10 {18} 20 км 3/1 600 м
[Sc Ci fib]
-0.9 -11.6 44 -7 -7 1011.1 1009.3
Ю 2 {10} 20 км 3/0
[Ci fib]
-0.8 -7.6 60 -4 -1 1015.1 1013.3 -2.5 52
Ю 3 20 км 3/0
[Ci fib]
+0.2 -4.6 70 -4 +3 1016.5 1014.7
Ю 3 20 км 3/0
[Ci fib]
+0.3 -4.9 68 -4 +2 1017.8 1016.0
ЮЗ 5 20 км ясно +0.1 -4.2 73 -6 -6 1019.1 1017.3
ЮЗ 5 20 км ясно -1.7 -3.7 86 -8 -8 1020.5 1018.7 +2.2
ЮЗ 6 20 км ясно -2.3 -5.1 81 -9 -9 1020.5 1018.7
ЮЗ 6 20 км ясно -2.7 -5.5 81 -10 -10 1019.7 1018.0
Ю 6 20 км 8/6 300 м
[Sc Ci fib]
-3.1 -5.1 86 -11 -11 1019.1 1017.3
ЮЗ 7 20 км 9/8 300 м
[St Ci fib]
-0.7 -2.7 86 -8 -8 1019.1 1017.3 -3.4 51
Ю 7 {10} 4000 м дымка 9/8 300 м
[St Ci fib]
-1.2 -2.5 91 -9 -8 1019.1 1017.3
Ю 6 4000 м дымка 8/6 300 м
[St Ci fib]
-1.0 -3.0 86 -8 -7 1019.0 1017.3
ЮЗ 5 4000 м дымка 8/8 300 м
[St]
-1.5 -3.4 87 -8 -8 1019.1 1017.3
ЮЗ 4 4000 м дымка 8/8 300 м
[St]
-2.6 -4.0 90 -9 -9 1020.5 1018.7 -0.1
ЮЗ 2 2000 м дымка 4/4 300 м
[St]
-4.2 -4.7 96 -9 -9 1020.5 1018.7
ЮЗ 1 2000 м дымка 4/4 300 м
[St]
-4.8 -5.5 95 -7 -7 1020.5 1018.7
Ю 3 4000 м туман на расстоянии 3/1 300 м
[St Ci fib]
-5.5 -6.2 95 -11 -11 1020.5 1018.7
ЮЗ 4 500 м переохл. туман ясно -4.6 -5.1 96 -11 -11 1021.8 1020.0 -5.6 50
Ю 4 500 м переохл. туман ясно -3.0 -3.8 94 -9 -9 1021.8 1020.0
Ю 7 200 м переохл. туман ?/? -3.4 -3.9 96 -12 -12 1019.1 1017.3
Ю 8-10 {10} 2000 м дымка {туман} 10/10 100 м
[St]
-2.4 -2.9 96 -11 -11 1017.8 1016.0
Ю 9-11 {12} 4000 м дымка 10/10 300 м
[St]
-1.7 -2.7 93 -10 -10 1016.5 1014.7 -1.7
Ю 11-14 {14} 4000 м дымка 10/10 300 м
[St]
-1.7 -2.8 92 -11 -11 1013.8 1012.0
Ю 9-11 {14} 4000 м дымка 10/10 300 м
[St]
-2.0 -2.7 95 -11 -11 1012.5 1010.7
ЮЗ 3 {12} 2000 м дымка 10/10 100 м
[St]
-2.0 -2.4 97 -7 -7 1012.5 1010.7
ЮВ 2 2000 м дымка 9/4 100 м
[St Ac trans Cc]
-2.2 -2.9 95 -6 -6 1012.5 1010.7 -2.7 50
штиль 0 500 м туман, небо видно ясно -0.5 -1.9 90 -2 -2 1012.5 1010.7
штиль 0 500 м туман, небо видно 8/0
[Ac trans]
-1.8 -2.4 96 -3 +1 1012.5 1010.7
С 8-11 {12} 20 км {туман} 9/1 300 м
[St Ac trans Ci fib]
+0.5 -2.0 83 -7 -7 1011.1 1009.3
СЗ 6 {11} 4000 м дымка 9/8 300 м
[Sc Ci fib]
-0.1 -2.0 87 -7 -7 1013.8 1012.0 +5.6
СЗ 4 4000 м дымка 9/8 300 м
[Sc Ci fib]
-1.2 -2.6 90 -7 -7 1015.1 1013.3
С 4 4000 м дымка 10/10 300 м
[Sc]
-1.1 -3.0 87 -7 -7 1015.1 1013.3
С 9-10 {12} 4000 м слаб. ливневой снег {метель} 10/10 300 м
[Cb cap]
-2.9 -4.9 86 -12 -12 1017.8 1016.0
С 9-11 {12} 20 км позёмок {ливн. снег, метель} 10/10 300 м
[Sc]
-3.4 -7.5 73 -12 -12 1020.5 1018.7 -3.6 0.4 49
С 9-11 {12} 20 км позёмок {ливн. снег, метель} 9/9 300 м
[Sc]
-3.7 -8.5 69 -12 -12 1021.8 1020.0 -3.8
С 6 {11} 20 км {метель} 9/9 300 м
[Sc]
-3.1 -9.1 63 -10 -10 1023.1 1021.3
С 3 20 км {метель} 9/9 600 м
[Sc]
-3.2 -8.8 65 -8 -8 1024.5 1022.7
штиль 0 20 км 9/9 600 м
[Sc]
-3.2 -9.0 64 -4 -4 1025.8 1024.0 -3.0 0.0
З 3 20 км 9/9 600 м
[Sc]
-3.2 -7.7 71 -8 -8 1027.1 1025.3
З 5 20 км 10/10 600 м
[Sc]
-2.9 -5.9 80 -10 -10 1026.0 1024.3
ЮЗ 6 4000 м дымка 10/10 300 м
[Sc]
-1.1 -2.8 88 -8 -8 1025.8 1024.0
ЮЗ 9-10 {10} 4000 м дымка 9/9 300 м
[Sc]
0.0 -1.6 89 -8 -8 1024.5 1022.7 -3.2 48
Ю 7 {10} 4000 м дымка 10 баллов -0.1 -1.4 91 -7 -7 1024.5 1022.7
Ю 7 {12} 4000 м дымка 10/10 300 м
[St]
+0.1 -1.2 91 -7 -7 1023.1 1021.3
Ю 4 {11} 4000 м дымка 10 баллов +0.2 -0.8 93 -5 -5 1023.1 1021.3
Ю 5 2000 м дымка 10 баллов -0.1 -0.9 94 -6 -6 1023.1 1021.3 +0.5
Ю 4 2000 м дымка 10 баллов -0.3 -0.9 96 -6 -6 1023.1 1021.3
ЮЗ 8 {10} 2000 м дымка 9 баллов -0.6 -1.2 96 -8 -8 1020.5 1018.7
Ю 4 {12} 2000 м дымка 10 баллов +0.2 -0.4 96 -5 -5 1020.5 1018.7 -1.1
ЮЗ 3 1000 м 10 баллов +0.6 0.0 96 -4 -4 1020.5 1018.7
Ю 3 2000 м 9 баллов +0.5 -0.4 94 -4 -3 1019.1 1017.3
Местоположение метеостанции Мыс Африка (Камчатский край, Россия): широта 56.18 долгота 163.30 высота над уровнем моря 14 м.
В архиве по умолчанию представлена погода на Мысе Африка за последнюю неделю. Архивные данные за месяц целиком и за предыдущие месяцы, начиная с января 2011 года, Вы можете получить, выбрав интересующий диапазон дат из раскрывающегося списка и нажав кнопку "Найти!".
*Определитесь, кто Вы:
Внимание! Время в таблицах - всемирное. Для получения местного времени необходимо прибавить поправку, которая равна 12 ч.
Некоторые строки с данными для отдельных станций могут быть выделены курсивом. Это означает, что фактические данные отсутствуют по различным причинам, а приведенные значения являются расчетными модельными данными для данного пункта наблюдений.
Смотрите также архив погоды в соседних городах и на ближайших метеорологических станциях:
Партнеры нашего сайта:      
Пояснения к столбцам:
  • Ветер - указаны скорость ветра в м/с - средняя за 10 мин, порывы в срок и между сроками (в фигурных скобках) и направление, откуда дует ветер: С - северный,
  • СВ - северо-восточный, В - восточный, ЮВ - юго-восточный, Ю - южный, ЮЗ - юго-западный, З - западный, СЗ - северо-западный.
  • Видимость - горизонтальная дальность видимости в метрах или километрах. При видимости от 1 до 10 км при отсутствии осадков обычно наблюдается дымка, при ухудшении видимости до 1 км и менее - туман. В сухую погоду видимость может ухудшаться дымом, пылью или мглою.
  • Явления - указаны атмосферные явления, наблюдавшиеся в срок или в последний час перед сроком; фигурными скобками обозначены явления, наблюдавшиеся между сроками (за 1-3 часа до срока); квадратными скобками обозначены град или гололедные отложения с указанием их диаметра в мм.
  • Облачность - указаны через наклонную черту общая и нижняя облачность в баллах и высота нижней границы облаков в метрах; квадратными скобками обозначены формы облаков: Ci - перистые, Cs - перисто-слоистые, Cc - перисто-кучевые, Ac - высококучевые, As - высокослоистые, Sc - слоисто-кучевые, Ns - слоисто-дождевые, Cu - кучевые, Cb - кучево-дождевые. Подробнее классификацию облаков см. в Атласе облаков (PDF).
  • T - Температура воздуха - температура, измеренная на высоте 2 м над землей.
  • Td - Температура точки росы - температура, при понижении до которой содержащийся в воздухе водяной пар достигнет насыщения.
  • f - Относительная влажность воздуха - влажноcть воздуха, измеренная на высоте 2 м над землей.
  • Te - Эффективная температура - температура, которую ощущает одетый по сезону человек в тени. Характеристика душности погоды. При расчете учитывается влияние влажности воздуха и скорости ветра на теплоощущения человека.
  • Tes - Эффективная температура на солнце - температура, которую ощущает человек, с поправкой на солнечный нагрев. Характеристика знойности погоды. Зависит от высоты солнца над горизонтом, облачности и скорости ветра. Ночью, в пасмурную погоду, а также при ветре 12 м/с и более поправка равна нулю.
  • P - Атмосферное давление - приведенное к уровню моря атмосферное давление.
  • Po - Атмосферное давление - измеренное на уровне метеостанции атмосферное давление.
  • Tmin - Минимальная температура - минимум температуры воздуха на высоте 2 м над землей.
  • Tmax - Максимальная температура - максимум температуры воздуха на высоте 2 м над землей.
  • R - Количество осадков - Количество выпавших осадков за период времени, мм. При наведении курсора мыши на число - период времени, за который выпало указанное количество осадков.
  • R24 - Количество осадков - Количество выпавших осадков за 24 часа, мм.
  • S - Снежный покров - Высота снежного покрова, см. При наведении курсора мыши на число - состояние снежного покрова и степень покрытия местности в баллах.